Погода в Пензе

Погода в Пензе : погода сейчас, прогноз погоды и архив. Всё, что Вы хотите узнать о погоде в Пензе!

Хотите узнать прогноз погоды в Пензе? Тогда Вам сюда: Погода в Пензе

Поиск расширенной информации на нашем сайте:

Другие новости

Новости СМИ2

Главная страница сайта

Новости сайта

02.10.2013

Напоминаем, что на нашем новом сайте вы можете получить высокодетализированные прогнозы погоды по пунктам России, СНГ и мира (включающие важные для авиации метеовеличины, такие как направление и скорость ветра, видимость, явления погоды, количество и форма облачности, нижняя и верхняя граница облачности), а также ознакомиться с разнообразными материалами по авиационной метеорологии и подборкой полезных ссылок на эту тему.

Сайт Метеоцентр.Азия посвящён разработке технологий оптимизации авиаметеорологического обслуживания, включая проектирование и перспективное создание нескольких автоматизированных авиаметеорологических систем:
- система выпуска высокодетальных прогностических карт явлений погоды для нижнего воздушного пространства по России и ближнему зарубежью;
- система верификации прогнозов TAF (выпускаемых синоптиками официальных АМСГ РФ и ближнего зарубежья) и AUTOTAF (выпускаемых сайтом Метеоцентр.Азия) - выявление ошибок, онлайн-сопоставление с фактической погодой METAR, автоматическое внесение коррективов в прогнозы при резком отклонении фактической погоды от прогноза, подсчёт оправдываемости прогнозов по элементам и в целом;
- система обработки, анализа и отображения авиаметеорологической информации для применения провайдерами метеорологической информации.

Рекомендуем: Нижегородская типография ОЛИВЕР: печать листовок.

Погода в Пензе - сегодня

Время (UTC), дата Ветер
(°,м/с) 
Видим.   Явления Облачность Т
(°С)
Тd
(°С)
f(%) Тe
(°С)
Pmin
(гПа)
dP
(гПа)
Po
(мм)
O2
(г/м3)
Тmin Tmax R s Состояние
почвы
15 16.01.17 130 (ЮВ) 10 км    10/4 600 м средняя 
[Sc|Ac trans]
-12 -14.6 81 -15  1030.6  0.1  756  320    -11.5  0.0     
18 16.01.17 130 (ЮВ) 10 км    10/3 600 м средняя 
[Sc|Ac trans]
-13 -15.5 81 -15  1030.9  0.2  756  321           
21 16.01.17 140 (ЮВ) 10 км    10/0 средняя 
[Ac As]
-12.9 -15.5 81 -16  1031.1  0.2  756  321           
00 17.01.17 120 (ЮВ) 10 км    10/6 800 м средняя 
[Sc|Ac As]
-12.9 -15.6 80 -15  1031.1  756  321           
03 17.01.17 140 (ЮВ) 10 км    10/4 600 м средняя 
[Sc|Ac As]
-13.3 -16.7 76 -17  1030.7  -0.4  756  321  -13.3      24  равномерный
сухой снег
100% 
06 17.01.17 130 (ЮВ) 4000 м  слаб. снег  10/4 600 м средняя 
[Sc|Ac trans]
-13.3 -15.8 81 -15  1031.3  0.6  756  322  -13.6         
09 17.01.17 140 (ЮВ) 4000 м  слаб. снег  10/10 600 м 
[Sc]
-11.3 -14.2 79 -13  1031.7  0.5  757  319           
12 17.01.17 210 (ЮЗ) 10 км  {снег}  10/10 600 м 
[Sc|Ac As]
-10.5 -13.7 77 -12  1031.7  -0.1  757  318           
15 17.01.17 тихо ()   10 км    9/0 средняя 
[Ac As]
-12.5 -14.6 84 -13  1032.1  0.2  757  321    -10.2  0.6     
18 17.01.17 тихо ()   10 км    10/0 средняя 
[Ac trans]
-12.3 -14.1 86 -12  1032.4  0.3  757  321           
21 17.01.17 240 (ЮЗ) 10 км    10/0 средняя 
[Ac trans]
-13.3 -15 87 -15  1032.7  0.2  757  322           
00 18.01.17 250 (З) 10 км  {снег}  10/0 средняя 
[Ac As]
-13.2 -14.9 87 -13  1033.2  0.5  758  322           
03 18.01.17 230 (ЮЗ) 10 км    10/0 средняя 
[Ac As]
-13.4 -15.3 86 -16  1033  -0.2  757  322  -13.9    0.0  24  равномерный
сухой снег
100% 
06 18.01.17 240 (ЮЗ) 10 км  слаб. снег  10/0 средняя 
[Ac As]
-10.7 -12.3 88 -13  1033.9  1.1  758  319           
09 18.01.17 230 (ЮЗ) 4000 м    10/10 660 м 
[Sc]
-7.6 -9.8 84 -9  1033.7  0.1  758  315           
12 18.01.17 300 (СЗ) 10 км  слаб. снег  10/8 500 м средняя 
[Sc diur, vesp|Ac trans]
-5.6 -8 83 -7  1033.2  -0.4  758  313           
15 18.01.17 270 (З) 10 км  {снег}  8/0 средняя 
[Ac As]
-7.5 -9.4 86 -9  1033.6  0.3  758  315    -5.6  0.0     
18 18.01.17 240 (ЮЗ) 10 км  слаб. снег  10/0 средняя 
[Ac As]
-8.2 -9.3 92 -10  1033.8  0.1  758  316           
21 18.01.17 280 (З) 10 км  слаб. снег  10/0 средняя 
[Ac As]
-8 -9.3 90 -8  1033.1  -0.6  758  316           
00 19.01.17 280 (З) 10 км  {снег}  10/10 800 м 
[Sc]
-7.5 -10 82 -9  1032.5  -0.6  757  315           
03 19.01.17 240 (ЮЗ) 10 км    10/10 660 м 
[Sc]
-8.6 -10.7 85 -12  1031.2  -1.3  756  316  -8.7    0.3  26  равномерный
сухой снег
100% 
06 19.01.17 260 (З) 10 км    9/9 300 м 
[Frnb]
-9.7 -11.3 88 -14  1030.5  -0.8  756  317  -9.7         
09 19.01.17 240 (ЮЗ) 10 км    9/9 1080 м 
[Sc]
-9.8 -12.3 82 -14  1029.5  -1.1  755  317           
12 19.01.17 240 (ЮЗ) 10 км    10/10 630 м 
[Sc]
-8.4 -11 81 -13  1027.8  -1.5  754  314           
15 19.01.17 250 (З) 10 км  позёмок  9/9 1020 м 
[Sc]
-6.5 -8.8 84 -11  1025.4  -2.1  752  311    -6.5       
Время (UTC), дата Ветер
(°,м/с) 
Видим.   Явления Облачность Т
(°С)
Тd
(°С)
f(%) Тe
(°С)
Pmin
(гПа)
dP
(гПа)
Po
(мм)
O2
(г/м3)
Тmin Tmax R s Состояние
почвы

Для получения пояснительной информации подведите курсор к названию столбца.

ПОГОДА в Пензе - архив

Всё, что Вы хотите узнать о погоде в Пензе - удобно и подробно!

Выберите нужную дату (начиная с 1 января 2015* года) и нажмите кнопку "Найти".
Будут отображены архивные сводки погоды по пункту Пенза, начиная с указанной даты.


Отображать данные в формате CSV (для использования в таблицах Excel)


Внимание! Наш архив погоды предназначен исключительно для личного некоммерческого использования в познавательных целях. Если Вам необходимы официальные справки о состоянии погоды (для производственных, юридических, коммерческих и т.п. целей), обращайтесь в органы Росгидромета.

*Примечание: данная дата относится к архиву по метеостанциям СССР (Россия, СНГ, Балтия).
Архив по метеостанциям Зарубежной Европы и Азии (кроме Китая) хранится 10 дней, по другим регионам земного шара (Китай, Африка, Америка, Австралия, Океания) - 1 день.

Пенза - район местоположения метеостанции


Название, широта, долгота, высота метеостанции:
Пенза (Терновка) 53.1°ш. 45°д. 177 м над ур. моря [Российская Федерация]

Дополнительная информация

В oтличие oт бoльшинства пoгoдных сайтoв мы публикуем пoдрoбную метеoинфoрмацию в детальнoм прoфессиoнальнoм фoрмате.

Характеристики температуры и влажнoсти вoздуха измеряются на высoте 2 м в тени вдали oт зданий и деревьев.
Скoрoсть ветра измеряется на высoте 10 м (на урoвне рoста челoвека скoрoсть ветра ниже в 1.5-2 раза). Если метеoстанция нахoдится в гoрoде или в лесу, тo скoрoсть ветра занижена на 2-4 м/с пo сравнению с oткрытым местoм. Скoрoсть ветра над акватoриями крупных рек и oзёр, а также на вершинах хoлмoв на 2-5 м/с выше, чем в oбычных услoвиях.
Атмoсфернoе давление в разных тoчках местнoсти мoжет значительнo oтличаться oт давления на метеoстанции, в зависимoсти oт услoвий рельефа (при пoдъёме на 10 м давление пoнижается примернo на 1 мм рт.ст.).